Weather in Nizhniye Aremzyany

Russia / Tyumen Oblast     58°29′47″N   68°37′07″E
temp.,
°C
wind,
m/s
gust,
m/s
humid.,
%
clouds,
%
prec.,
mm/h
press.,
hPa
HPBL,
m
21 april, wed
wed2123:000nw399148 0.0 1023173
02:00−1n23965 0.0 102557
05:00−2n25967 0.0 1027115
08:00+2n36695 0.0 1029596
11:00+5n45495 0.0 10301083
14:00+7n45425 0.0 10321410
17:00+7nne34445 0.0 10331340
20:00+2ene22685 0.0 103520
22 april, thu
thu2223:000se36773 0.0 1037124
02:00−1sse38773 0.0 1038171
05:00−1sse38774 0.0 1040207
08:00+3sse57565 0.0 1040478
11:00+7s56455 0.0 10401092
14:00+10s57405 0.0 10391475
17:00+10s57425 0.0 10381592
20:00+6sse5115366 0.0 1038329
23 april, fri
fri2323:00+5sse51455100 0.0 1038403
02:00+3sse51358100 0.0 1038357
05:00+3sse51360100 0.0 1037330
08:00+6s5115285 0.0 1037421
11:00+10s6945100 0.0 1036684
14:00+14s6842100 0.0 10351414
17:00+13s6845100 0.0 10341659
20:00+11s51054100 0.0 1034388
24 april, sat
sat2423:00+8s41158100 0.0 1034371
02:00+6sse41061100 0.0 1033303
05:00+5sse4964100 0.0 1032228
08:00+7s4953100 0.0 1032394
11:00+11s5739100 0.0 1031949
14:00+12s5735100 0.0 10291622
17:00+11s4639100 0.0 10291194
20:00+8sw4753100 0.0 1029291
25 april, sun
sun2523:00+7se3758100 0.0 1028196
02:00+6sse3958100 0.0 1026235
05:00+5ese3864100 0.0 1025172
08:00+7se41054100 0.0 1024407
11:00+11sse5839100 0.0 1022842
14:00+13sse6934100 0.0 10212160
17:00+12sse6937100 0.0 10202161
20:00+11se5124282 0.0 1018585